{"data":{"norad_id":42839,"epoch":"2026-05-24T23:22:00.591744Z","epoch_age_seconds":67375,"freshness":"FRESH","line1":"1 42839U 17042Q   26144.97361796  .00013587  00000+0  51051-3 0  9993","line2":"2 42839  97.4078 325.7274 0008030  81.6578 278.5571 15.27264360484624","mean_motion":15.2726436,"eccentricity":0.000803,"inclination_deg":97.4078,"raan_deg":325.7274,"arg_perigee_deg":81.6578,"mean_anomaly_deg":278.5571,"bstar":0.00051051,"rev_number":48462,"period_min":94.286230839565,"perigee_km":478.48410701062,"apogee_km":489.50469003666,"semimajor_km":6862.1313985236,"source":"CELESTRAK","updated_at":"2026-05-25T13:38:13.529600Z"}}